This is the latest recevied weather packets stored in our database for station/object WD4IXD-WX. If no packets are shown the sender has not sent any weather packets the latest 10 day(s).
| Time | Temp. | Humidity | Pressure | Rain* | Wind** | Luminosity | Snow |
|---|---|---|---|---|---|---|---|
| 1777664704 | 1.11° C | 67% | 1021.1 hPa | 2.03 mm | - | 1028 W/m² | - |
| 1777664404 | 0.56° C | 70% | 1021.2 hPa | 1.78 mm | - | 355 W/m² | - |
| 1777664104 | 0.56° C | 66% | 1021.2 hPa | 2.03 mm | - | 206 W/m² | - |
| 1777663804 | 1.11° C | 68% | 1021.2 hPa | 2.29 mm | - | 450 W/m² | - |
| 1777663504 | 1.11° C | 71% | 1021.2 hPa | 2.29 mm | - | 1051 W/m² | - |
| 1777663204 | 0.56° C | 69% | 1021.2 hPa | 2.54 mm | - | 1004 W/m² | - |
| 1777662904 | 0.56° C | 67% | 1021.3 hPa | 2.54 mm | - | 995 W/m² | - |
| 1777662604 | 0° C | 69% | 1021.3 hPa | 2.54 mm | - | 990 W/m² | - |
| 1777662304 | 0.56° C | 69% | 1021.4 hPa | 2.54 mm | - | 991 W/m² | - |
| 1777662004 | 0.56° C | 72% | 1021.3 hPa | 2.29 mm | - | 997 W/m² | - |
| 1777661704 | 0° C | 70% | 1021.4 hPa | 2.29 mm | - | 993 W/m² | - |
| 1777661404 | 0° C | 74% | 1021.4 hPa | 2.29 mm | - | 990 W/m² | - |
| 1777661104 | -0.56° C | 71% | 1021.4 hPa | 2.03 mm | - | 1014 W/m² | - |
| 1777660804 | -0.56° C | 74% | 1021.4 hPa | 2.03 mm | - | 1079 W/m² | - |
| 1777660504 | -0.56° C | 71% | 1021.5 hPa | 1.78 mm | - | 1216 W/m² | - |
| 1777660204 | -0.56° C | 73% | 1021.5 hPa | 1.52 mm | - | 844 W/m² | - |
| 1777659904 | -0.56° C | 75% | 1021.5 hPa | 1.27 mm | - | 722 W/m² | - |
| 1777659604 | -1.11° C | 76% | 1021.6 hPa | 1.52 mm | - | 722 W/m² | - |
| 1777659303 | -1.11° C | 72% | 1021.6 hPa | 1.27 mm | - | 608 W/m² | - |
| 1777659004 | -0.56° C | 79% | 1021.6 hPa | 1.02 mm | - | 599 W/m² | - |
| 1777658703 | -1.11° C | 77% | 1021.6 hPa | 1.02 mm | - | 645 W/m² | - |
| 1777658404 | -1.11° C | 79% | 1021.7 hPa | 1.02 mm | - | 886 W/m² | - |
| 1777658104 | -1.11° C | 80% | 1021.6 hPa | 0.76 mm | - | 657 W/m² | - |
| 1777657804 | -1.11° C | 84% | 1021.6 hPa | 0.51 mm | - | 701 W/m² | - |
| 1777657504 | -1.67° C | 83% | 1021.6 hPa | 0.51 mm | - | 533 W/m² | - |
* Rain latest hour (hover to see other rain measurements)
** Current wind speed in m/s (hover to see current wind gust speed)